User: anonymous   Login
Location: Black Rock Desert
(40.7548°N, 119.2364°W)
Time: 09:28:36
(UTC-08:00)
Language:

Cosmos 1340 Rocket - Orbit

View from above orbital plane
View from above orbital plane
View from above satellite
View from above satellite

Ground track
Ground track

The orbit data is extracted from the following two-line orbital elements,

1 13068U 82013B   17023.20603790  .00000511  00000-0  32510-4 0  9994
2 13068  81.2013  27.9622 0023542  75.6946 284.6889 15.06813678901668
Epoch (UTC): 23 January 2017 04:56:41
Eccentricity: 0.0023542
inclination: 81.2013°
perigee height: 529 km
apogee height: 562 km
right ascension of ascending node: 27.9622°
argument of perigee: 75.6946°
revolutions per day: 15.06813678
mean anomaly at epoch: 284.6889°
orbit number at epoch: 90166

The dashed part of the orbit path shows where the satellite is in the earth's shadow,  

DLR